Hourly Weather Dziektarzew

Today, 12 July, Sunday

Time Temperature Precipitation Wind Pressure Humidity
00:00 +12°C° 0 mm 2 mps 752 mmHg 85%
01:00 +12°C° 0 mm 2 mps 752 mmHg 86%
02:00 +12°C° 0 mm 2 mps 752 mmHg 87%
03:00 +10°C° 0 mm 2 mps 752 mmHg 88%
04:00 +10°C° 0 mm 2 mps 752 mmHg 88%
05:00 +12°C° 0 mm 2 mps 752 mmHg 84%
06:00 +13°C° 0 mm 2 mps 752 mmHg 80%
07:00 +15°C° 0 mm 2 mps 753 mmHg 75%
08:00 +16°C° 0 mm 3 mps 753 mmHg 69%
09:00 +18°C° 0 mm 4 mps 752 mmHg 63%
10:00 +19°C° 0 mm 4 mps 752 mmHg 57%
11:00 +19°C° 0.1 mm 4 mps 752 mmHg 56%
12:00 +20°C° 0.1 mm 4 mps 752 mmHg 55%
13:00 +20°C° 0.1 mm 4 mps 752 mmHg 53%
14:00 +20°C° 0.2 mm 5 mps 752 mmHg 55%
15:00 +20°C° 0.2 mm 5 mps 752 mmHg 56%
16:00 +19°C° 0.2 mm 5 mps 752 mmHg 58%
17:00 +19°C° 0.1 mm 4 mps 752 mmHg 63%
18:00 +18°C° 0.1 mm 3 mps 752 mmHg 67%
19:00 +17°C° 0.1 mm 2 mps 752 mmHg 72%
20:00 +16°C° 0 mm 2 mps 752 mmHg 74%
21:00 +14°C° 0 mm 2 mps 752 mmHg 75%
22:00 +13°C° 0 mm 2 mps 752 mmHg 77%
23:00 +13°C° 0 mm 2 mps 753 mmHg 78%

Tomorrow, 13 July, Monday

Time Temperature Precipitation Wind Pressure Humidity
00:00 +13°C° 0 mm 2 mps 753 mmHg 79%
01:00 +12°C° 0 mm 2 mps 753 mmHg 80%
02:00 +12°C° 0 mm 2 mps 753 mmHg 83%
03:00 +10°C° 0 mm 2 mps 752 mmHg 86%
04:00 +10°C° 0 mm 2 mps 752 mmHg 89%
05:00 +12°C° 0 mm 2 mps 752 mmHg 85%
06:00 +13°C° 0 mm 3 mps 752 mmHg 80%
07:00 +14°C° 0 mm 3 mps 752 mmHg 75%
08:00 +16°C° 0 mm 3 mps 752 mmHg 72%
09:00 +17°C° 0 mm 4 mps 752 mmHg 69%
10:00 +18°C° 0 mm 4 mps 752 mmHg 65%
11:00 +18°C° 0.1 mm 4 mps 751 mmHg 65%
12:00 +19°C° 0.1 mm 4 mps 751 mmHg 66%
13:00 +19°C° 0.1 mm 4 mps 751 mmHg 66%
14:00 +19°C° 0.1 mm 5 mps 751 mmHg 66%
15:00 +19°C° 0.1 mm 5 mps 750 mmHg 65%
16:00 +20°C° 0.1 mm 5 mps 750 mmHg 65%
17:00 +19°C° 0 mm 4 mps 750 mmHg 69%
18:00 +18°C° 0 mm 3 mps 750 mmHg 73%
19:00 +18°C° 0 mm 2 mps 750 mmHg 77%
20:00 +17°C° 0 mm 2 mps 750 mmHg 80%
21:00 +16°C° 0 mm 2 mps 750 mmHg 83%
22:00 +14°C° 0 mm 2 mps 750 mmHg 86%
23:00 +14°C° 0 mm 2 mps 750 mmHg 87%

Day after tomorrow, 14 July, Tuesday

Time Temperature Precipitation Wind Pressure Humidity
00:00 +14°C° 0 mm 1 mps 750 mmHg 88%
01:00 +13°C° 0 mm 1 mps 750 mmHg 90%
02:00 +13°C° 0 mm 1 mps 749 mmHg 90%
03:00 +12°C° 0 mm 0 mps 749 mmHg 90%
04:00 +11°C° 0 mm 0 mps 749 mmHg 90%
05:00 +13°C° 0 mm 0 mps 749 mmHg 85%
06:00 +16°C° 0 mm 1 mps 749 mmHg 80%
07:00 +18°C° 0 mm 1 mps 749 mmHg 74%
08:00 +19°C° 0 mm 1 mps 749 mmHg 68%
09:00 +21°C° 0 mm 1 mps 749 mmHg 62%
10:00 +21°C° 0 mm 2 mps 748 mmHg 56%
11:00 +22°C° 0.1 mm 1 mps 748 mmHg 54%
12:00 +23°C° 0.1 mm 1 mps 748 mmHg 52%
13:00 +23°C° 0.1 mm 1 mps 748 mmHg 51%
14:00 +23°C° 0 mm 1 mps 747 mmHg 51%
15:00 +23°C° 0 mm 1 mps 747 mmHg 51%
16:00 +23°C° 0 mm 1 mps 746 mmHg 51%
17:00 +22°C° 0 mm 1 mps 746 mmHg 56%
18:00 +22°C° 0 mm 1 mps 746 mmHg 60%
19:00 +21°C° 0 mm 1 mps 746 mmHg 64%
20:00 +20°C° 0 mm 1 mps 746 mmHg 67%
21:00 +18°C° 0 mm 1 mps 746 mmHg 69%
22:00 +16°C° 0 mm 2 mps 746 mmHg 72%
23:00 +16°C° 0 mm 2 mps 746 mmHg 75%

15 July, Wednesday

Time Temperature Precipitation Wind Pressure Humidity
00:00 +16°C° 0 mm 2 mps 746 mmHg 78%
01:00 +15°C° 0 mm 2 mps 746 mmHg 81%
02:00 +15°C° 0 mm 2 mps 746 mmHg 82%
03:00 +15°C° 0 mm 2 mps 746 mmHg 83%
04:00 +14°C° 0 mm 2 mps 745 mmHg 85%
05:00 +16°C° 0 mm 3 mps 745 mmHg 81%
06:00 +17°C° 0 mm 3 mps 745 mmHg 77%
07:00 +18°C° 0 mm 3 mps 745 mmHg 74%
08:00 +20°C° 0.4 mm 3 mps 745 mmHg 69%
09:00 +21°C° 0.4 mm 3 mps 745 mmHg 65%
10:00 +22°C° 0.4 mm 3 mps 744 mmHg 60%
11:00 +24°C° 0.2 mm 3 mps 744 mmHg 56%
12:00 +25°C° 0.2 mm 3 mps 744 mmHg 53%
13:00 +26°C° 0.2 mm 4 mps 743 mmHg 49%
14:00 +26°C° 0 mm 3 mps 743 mmHg 49%
15:00 +26°C° 0 mm 3 mps 743 mmHg 49%
16:00 +26°C° 0 mm 3 mps 742 mmHg 48%
17:00 +25°C° 0 mm 2 mps 742 mmHg 54%
18:00 +23°C° 0 mm 2 mps 742 mmHg 59%
19:00 +21°C° 0 mm 2 mps 742 mmHg 65%
20:00 +20°C° 0.3 mm 2 mps 742 mmHg 69%
21:00 +19°C° 0.3 mm 2 mps 742 mmHg 73%
22:00 +18°C° 0.3 mm 2 mps 742 mmHg 78%
23:00 +18°C° 0.4 mm 3 mps 741 mmHg 82%

16 July, Thursday

Time Temperature Precipitation Wind Pressure Humidity
00:00 +17°C° 0.4 mm 3 mps 741 mmHg 87%
01:00 +17°C° 0.4 mm 3 mps 741 mmHg 92%
02:00 +16°C° 2.1 mm 3 mps 741 mmHg 93%
03:00 +15°C° 2.1 mm 4 mps 741 mmHg 94%
04:00 +15°C° 2.1 mm 5 mps 741 mmHg 95%
05:00 +14°C° 1.2 mm 5 mps 741 mmHg 94%
06:00 +14°C° 1.2 mm 5 mps 741 mmHg 93%
07:00 +13°C° 1.2 mm 6 mps 742 mmHg 92%
08:00 +14°C° 0.3 mm 6 mps 742 mmHg 89%
09:00 +14°C° 0.3 mm 6 mps 742 mmHg 85%
10:00 +15°C° 0.3 mm 5 mps 742 mmHg 82%
11:00 +16°C° 0.3 mm 5 mps 742 mmHg 77%
12:00 +17°C° 0.3 mm 5 mps 742 mmHg 73%
13:00 +17°C° 0.3 mm 5 mps 742 mmHg 69%
14:00 +17°C° 0.7 mm 5 mps 742 mmHg 71%
15:00 +17°C° 0.7 mm 5 mps 742 mmHg 72%
16:00 +17°C° 0.7 mm 6 mps 742 mmHg 74%
17:00 +16°C° 0.1 mm 5 mps 742 mmHg 77%
18:00 +15°C° 0.1 mm 4 mps 742 mmHg 80%
19:00 +14°C° 0.1 mm 3 mps 742 mmHg 83%
20:00 +14°C° 0 mm 2 mps 742 mmHg 85%
21:00 +14°C° 0 mm 2 mps 742 mmHg 88%
22:00 +13°C° 0 mm 1 mps 742 mmHg 90%
23:00 +13°C° 0 mm 1 mps 742 mmHg 91%

17 July, Friday

Time Temperature Precipitation Wind Pressure Humidity
00:00 +13°C° 0 mm 1 mps 742 mmHg 91%
01:00 +13°C° 0 mm 1 mps 742 mmHg 92%
02:00 +13°C° 0 mm 1 mps 742 mmHg 93%
03:00 +13°C° 0 mm 1 mps 742 mmHg 93%
04:00 +13°C° 0 mm 1 mps 743 mmHg 93%
05:00 +13°C° 0 mm 1 mps 743 mmHg 91%
06:00 +14°C° 0 mm 1 mps 743 mmHg 89%
07:00 +15°C° 0 mm 2 mps 744 mmHg 86%
08:00 +16°C° 0.1 mm 2 mps 744 mmHg 81%
09:00 +17°C° 0.1 mm 3 mps 744 mmHg 75%
10:00 +18°C° 0.1 mm 3 mps 744 mmHg 70%
11:00 +18°C° 0.1 mm 4 mps 744 mmHg 72%
12:00 +18°C° 0.1 mm 4 mps 744 mmHg 74%
13:00 +17°C° 0.1 mm 5 mps 744 mmHg 76%
14:00 +19°C° 0.2 mm 5 mps 744 mmHg 73%
15:00 +20°C° 0.2 mm 5 mps 744 mmHg 71%
16:00 +21°C° 0.2 mm 5 mps 744 mmHg 68%
17:00 +20°C° 0.5 mm 4 mps 745 mmHg 73%
18:00 +19°C° 0.5 mm 4 mps 745 mmHg 77%
19:00 +18°C° 0.5 mm 3 mps 745 mmHg 82%
20:00 +17°C° 0 mm 3 mps 745 mmHg 85%
21:00 +16°C° 0 mm 3 mps 745 mmHg 88%
22:00 +14°C° 0 mm 3 mps 746 mmHg 91%
23:00 +13°C° 0 mm 3 mps 746 mmHg 91%
Show more